Location: Black Creek
(40.9000°S, 175.5500°E)
Time: 13:09:13
(UTC+00:00)

Vanguard 1 Rocket - All Passes

Search period start: 09 November 2024 00:00
Search period end: 19 November 2024 00:00
Orbit: 651 x 4217 km, 34.3° (Epoch: 08 November)

Date Brightness Start Highest point End Pass type
(mag) Time Alt. Az. Time Alt. Az. Time Alt. Az.
09 Nov - 11:44:55 10° NNE 11:48:26 15° NE 11:52:56 10° ENE visible
09 Nov - 14:04:37 10° NW 14:12:07 51° NNE 14:26:33 10° E visible
09 Nov - 16:28:09 10° W 16:39:04 67° N 17:00:12 10° ENE daylight
09 Nov - 18:53:30 10° W 19:08:24 52° NNW 19:32:07 10° NE daylight
09 Nov - 21:22:39 10° W 21:38:16 27° NW 21:57:08 10° N daylight
10 Nov - 12:54:01 10° NNW 13:00:02 34° NE 13:10:21 10° E visible
10 Nov - 15:16:33 10° WNW 15:25:28 64° N 15:43:17 10° E visible
10 Nov - 17:41:00 10° W 17:53:42 59° NNW 18:16:27 10° ENE daylight
10 Nov - 20:07:50 10° W 20:23:25 36° NNW 20:45:01 10° NNE daylight
10 Nov - 22:46:09 10° WNW 22:52:36 12° NW 22:59:23 10° NNW daylight
11 Nov - 11:44:26 10° N 11:48:34 19° NE 11:54:18 10° E visible
11 Nov - 14:05:19 10° WNW 14:12:34 55° NNE 14:26:42 10° E visible
11 Nov - 16:29:00 10° W 16:39:32 64° N 16:59:58 10° ENE daylight
11 Nov - 18:54:26 10° W 19:08:34 45° NNW 19:31:04 10° NE daylight
11 Nov - 21:24:47 10° W 21:38:07 21° NW 21:54:06 10° N daylight
12 Nov - 12:54:30 10° NW 13:00:24 39° NNE 13:10:46 10° E visible
12 Nov - 15:17:23 10° WNW 15:26:00 64° N 15:43:15 10° ENE visible
12 Nov - 17:41:53 10° W 17:54:03 54° NNW 18:15:47 10° NE daylight
12 Nov - 20:09:10 10° W 20:23:26 30° NW 20:43:02 10° NNE daylight
13 Nov - 11:44:24 10° NNW 11:48:49 23° NE 11:55:15 10° E visible
13 Nov - 14:06:05 10° WNW 14:13:07 58° NNE 14:26:52 10° E visible
13 Nov - 16:29:52 10° W 16:40:01 60° N 16:59:38 10° ENE daylight
13 Nov - 18:55:29 10° W 19:08:47 39° NNW 19:29:41 10° NNE daylight
13 Nov - 21:28:09 10° WNW 21:38:06 15° NW 21:49:36 10° NNW daylight
14 Nov - 12:55:07 10° NW 13:00:53 44° NNE 13:11:09 10° E visible
14 Nov - 15:18:14 10° W 15:26:35 62° N 15:43:11 10° ENE visible
14 Nov - 17:42:49 10° W 17:54:25 47° NNW 18:14:52 10° NE daylight
14 Nov - 20:10:57 10° W 20:23:32 24° NW 20:40:23 10° N daylight
15 Nov - 11:44:39 10° NNW 11:49:11 27° NNE 11:56:02 10° E visible
15 Nov - 14:06:54 10° WNW 14:13:44 59° N 14:27:00 10° E visible
15 Nov - 16:30:46 10° W 16:40:31 54° NNW 16:59:08 10° NE daylight
15 Nov - 18:56:44 10° W 19:09:02 32° NNW 19:27:54 10° NNE daylight
16 Nov - 10:35:23 10° N 10:37:50 13° NE 10:40:42 10° ENE visible
16 Nov - 12:55:49 10° WNW 13:01:27 48° NNE 13:11:29 10° E visible
16 Nov - 15:19:07 10° W 15:27:11 58° N 15:43:02 10° ENE visible
16 Nov - 17:43:52 10° W 17:54:49 40° NNW 18:13:41 10° NE daylight
16 Nov - 20:13:31 10° WNW 20:23:44 18° NW 20:36:45 10° N daylight
17 Nov - 11:45:05 10° NW 11:49:39 32° NNE 11:56:41 10° E visible
17 Nov - 14:07:45 10° WNW 14:14:23 58° N 14:27:08 10° ENE visible
17 Nov - 16:31:44 10° W 16:41:03 47° NNW 16:58:27 10° NE daylight
17 Nov - 18:58:20 10° W 19:09:22 26° NNW 19:25:35 10° NNE daylight
18 Nov - 10:35:02 10° N 10:38:12 18° NE 10:42:08 10° ENE visible
18 Nov - 12:56:35 10° WNW 13:02:05 51° NNE 13:11:49 10° E visible
18 Nov - 15:20:03 10° W 15:27:48 53° N 15:42:46 10° ENE visible
18 Nov - 17:45:05 10° W 17:55:16 33° NNW 18:12:10 10° NNE daylight
18 Nov - 20:18:08 10° WNW 20:24:04 12° NW 20:30:51 10° NNW daylight
